"TOA5","AWS1","CR1000","7964","CR1000.Std.14","CPU:AWS1_114.CR1","64363","TBL110"
"TIMESTAMP","RECORD","Wind_spd_WVc(1)","Wind_spd_WVc(2)","Air_Temp_Avg","Humidity_Avg","SW_upper_Wm2_Avg","Rain_Tot","Press_Avg","Issui_Tot","Depth_cm","SR50A_Raw","Quality","Ground_Temp_Avg(1)","Ground_Temp_Avg(2)","SW_lower_Wm2_Avg","Albedo_Avg","SWC_per(1)","SWC_per(2)","Period(1)","Period(2)"
"TS","RN","","","","","","","","","","","","","","","","","","",""
"","","WVc","WVc","Avg","Avg","Avg","Tot","Avg","Tot","Smp","Smp","Smp","Avg","Avg","Avg","Avg","Smp","Smp","Smp","Smp"
"2016-08-13 00:00:00",248461,0.065,117.8,18.44,100,0,0,864.4832,0,-5.028,3.127,185,23.19,22.16,0.03789541,0,44.25,52.05,31.83,33.8
"2016-08-13 00:10:00",248462,0.31,127.2,18.31,100,0,0,864.4747,0,-5.138,3.129,180,23.13,22.16,0,0,44.2,52.05,31.82,33.8
"2016-08-13 00:20:00",248463,0.118,125.5,18.17,100,0,0,864.3884,0,-4.932,3.127,189,23.1,22.16,0.01136862,0,44.2,52.05,31.82,33.8
"2016-08-13 00:30:00",248464,0.21,133,18.15,100,0,0,864.4241,0,-4.78,3.126,181,23.1,22.16,0.07958036,0,44.25,52.05,31.83,33.8
"2016-08-13 00:40:00",248465,0.414,145.1,18.03,100,0,0,864.3737,0,-4.938,3.128,181,23.05,22.16,0,0,44.25,51.99,31.83,33.79
"2016-08-13 00:50:00",248466,0.28,134,17.9,100,0,0,864.3737,0,-4.89,3.128,186,23.05,22.16,0.09852806,0,44.25,51.99,31.83,33.79
"2016-08-13 01:00:00",248467,0.121,117.8,17.93,100,0,0,864.3737,0,-4.787,3.127,190,23.02,22.17,0.2084248,0,44.2,51.99,31.82,33.79
"2016-08-13 01:10:00",248468,0.189,129.5,17.91,100,0,0,864.2493,0,-4.66,3.126,187,23.02,22.17,0.2197934,0,44.2,51.99,31.82,33.79
"2016-08-13 01:20:00",248469,0.073,41.56,17.88,100,0,0,864.3737,0,-5.097,3.13,187,23.07,22.18,0.2463202,0,44.2,51.99,31.82,33.79
"2016-08-13 01:30:00",248470,0.114,124.8,17.93,100,0,0,864.3525,0,-5.025,3.13,195,22.96,22.18,0.231162,0,44.2,51.99,31.82,33.79
"2016-08-13 01:40:00",248471,0.114,129.7,17.84,100,0,0,864.2493,0,-4.866,3.128,197,22.93,22.18,0.1856875,0,44.25,51.99,31.83,33.79
"2016-08-13 01:50:00",248472,0.041,130.2,17.82,100,0,0,864.2746,0,-4.763,3.127,190,22.94,22.19,0.1477921,0,44.25,51.99,31.83,33.79
"2016-08-13 02:00:00",248473,0,0,17.95,100,0,0,864.2114,0,-4.89,3.128,191,22.92,22.19,0.2273725,0,44.25,51.99,31.83,33.79
"2016-08-13 02:10:00",248474,0,0,17.97,100,0,0,864.1735,0,-4.89,3.128,179,22.85,22.18,0.2273725,0,44.25,51.99,31.83,33.79
"2016-08-13 02:20:00",248475,0.015,336.7,17.82,100,0,0,864.2009,0,-4.746,3.128,194,22.85,22.18,0.09094898,0,44.25,51.99,31.83,33.79
"2016-08-13 02:30:00",248476,0.029,305,17.61,100,0,0,864.3484,0,-4.594,3.127,194,22.86,22.19,0,0,44.2,51.99,31.82,33.79
"2016-08-13 02:40:00",248477,0.054,298.2,17.49,100,0,0,864.3568,0,-4.546,3.127,199,22.78,22.19,0.1743189,0,44.2,51.99,31.82,33.79
"2016-08-13 02:50:00",248478,0,0,17.56,100,0,0,864.3737,0,-4.388,3.125,211,22.76,22.18,0.2690574,0,44.2,51.99,31.82,33.79
"2016-08-13 03:00:00",248479,0.001,48.86,17.6,100,0,0,864.3737,0,-4.411,3.125,210,22.75,22.17,0.2690574,0,44.2,51.94,31.82,33.77
"2016-08-13 03:10:00",248480,0.003,46.86,17.59,100,0,0,864.3737,0,-4.23,3.123,210,22.71,22.17,0.2652679,0,44.2,51.94,31.82,33.77
"2016-08-13 03:20:00",248481,0.143,10.65,17.59,100,0,0,864.3737,0,-4.007,3.122,221,22.73,22.15,0.1781084,0,44.2,51.99,31.82,33.79
"2016-08-13 03:30:00",248482,0.045,126,17.56,100,0,0,864.3737,0,-3.689,3.118,226,22.67,22.14,0.2273725,0,44.2,51.94,31.82,33.77
"2016-08-13 03:40:00",248483,0.021,50.92,17.58,100,0,0,864.3737,0,-3.38,3.115,238,22.67,22.12,0.2273725,0,44.2,51.99,31.82,33.79
"2016-08-13 03:50:00",248484,0.019,90,17.5,100,0,0,864.3737,0,-3.666,3.118,216,22.66,22.08,0.1970561,0,44.2,51.94,31.82,33.77
"2016-08-13 04:00:00",248485,0.127,122.7,17.48,100,0,0,864.3757,0,-3.212,3.115,241,22.63,22.07,0.1136862,0,44.2,51.94,31.82,33.77
"2016-08-13 04:10:00",248486,0.336,144.1,17.28,100,0,0,864.3737,0,-3.37,3.117,228,22.59,22.06,0,0,44.2,51.94,31.82,33.77
"2016-08-13 04:20:00",248487,0.116,144.4,17.23,100,0,0,864.3737,0,-3.339,3.116,227,22.59,22.06,0.1667398,0,44.2,51.94,31.82,33.77
"2016-08-13 04:30:00",248488,0.046,143.4,17.29,100,0,0,864.3737,0,-3.315,3.116,227,22.63,22.06,0.2880051,0,44.2,51.94,31.82,33.77
"2016-08-13 04:40:00",248489,0,0,17.38,100,0,0,864.4326,0,-3.411,3.116,223,22.57,22.06,0.4547449,0,44.2,51.94,31.82,33.77
"2016-08-13 04:50:00",248490,0,0,17.47,100,0,0,864.6095,0,-3.411,3.116,218,22.5,22.07,0.4547449,0,44.2,51.94,31.82,33.77
"2016-08-13 05:00:00",248491,0,0,17.52,100,0,0,864.6221,0,-3.411,3.116,216,22.5,22.09,0.4547449,0,44.2,51.94,31.82,33.77
"2016-08-13 05:10:00",248492,0.096,58.63,17.42,100,0.4205403,0,864.6263,0,-3.418,3.117,208,22.47,22.09,0.5153776,1.034,44.2,51.94,31.82,33.77
"2016-08-13 05:20:00",248493,0.386,75.29,17.34,100,2.165586,0,864.6263,0,-3.515,3.117,206,22.45,22.11,0.5229567,0.262,44.2,51.94,31.82,33.77
"2016-08-13 05:30:00",248494,0,0,17.57,100,4.500175,0,864.6263,0,-3.563,3.117,206,22.41,22.07,1.019387,0.229,44.2,51.94,31.82,33.77
"2016-08-13 05:40:00",248495,0,0,17.68,100,10.14013,0,864.6306,0,-3.532,3.116,209,22.41,22.06,2.122143,0.211,44.2,51.94,31.82,33.77
"2016-08-13 05:50:00",248496,0.017,296.5,17.63,100,31.75276,0,864.6327,0,-3.563,3.117,204,22.41,22.06,5.684311,0.181,44.2,51.94,31.82,33.77
"2016-08-13 06:00:00",248497,0.117,39.95,17.64,100,30.97457,0,864.8328,0,-3.721,3.119,200,22.38,22.06,4.850612,0.154,44.2,51.94,31.82,33.77
"2016-08-13 06:10:00",248498,0.044,78.72,17.55,100,24.65467,0,864.8517,0,-3.714,3.118,203,22.4,22.06,2.993737,0.121,44.2,51.94,31.82,33.77
"2016-08-13 06:20:00",248499,0.016,278,17.76,100,41.53917,0,864.8791,0,-3.507,3.116,204,22.33,22.06,5.585783,0.134,44.15,51.94,31.81,33.77
"2016-08-13 06:30:00",248500,0,0,17.77,100,71.74732,0,864.8791,0,-3.349,3.114,200,22.32,22.05,11.16778,0.152,44.2,51.94,31.82,33.77
"2016-08-13 06:40:00",248501,0,0,17.82,100,93.50144,0,864.8791,0,-3.287,3.112,200,22.32,22.05,17.97758,0.196,44.2,51.94,31.82,33.77
"2016-08-13 06:50:00",248502,0.062,137.6,18.26,100,152.6601,0,864.8791,0,-3.137,3.108,193,22.32,22.05,20.59237,0.141,44.2,51.94,31.82,33.77
"2016-08-13 07:00:00",248503,0.308,63.41,18.57,98.7,165.0287,0,864.8791,0,-3.192,3.109,231,22.32,22.06,33.36312,0.202,44.2,51.88,31.82,33.76
"2016-08-13 07:10:00",248504,0.193,73.23,18.6,98.8,148.7534,0,864.8791,0,-3.05,3.106,219,22.27,22.02,29.43337,0.199,44.2,51.94,31.82,33.77
"2016-08-13 07:20:00",248505,0.617,10.35,18.5,98.5,157.4668,0,864.9086,0,-3.01,3.107,263,22.22,22,29.66453,0.191,44.2,51.94,31.82,33.77
"2016-08-13 07:30:00",248506,0.778,4.64,18.5,100,134.8598,0,864.8812,0,-3.519,3.111,238,22.24,21.98,28.8422,0.215,44.2,51.88,31.82,33.76
"2016-08-13 07:40:00",248507,0.468,24.89,18.83,97.7,200.0396,0,864.8791,0,-3.042,3.105,236,22.24,21.98,33.92018,0.168,44.2,51.88,31.82,33.76
"2016-08-13 07:50:00",248508,0.286,356.8,18.76,98.8,195.3233,0,864.8791,0,-3.305,3.108,209,22.24,21.98,29.88811,0.151,44.2,51.94,31.82,33.77
"2016-08-13 08:00:00",248509,0.607,13.81,18.66,100,273.4848,0,864.8834,0,-2.922,3.105,216,22.24,21.98,44.11405,0.16,44.2,51.88,31.82,33.76
"2016-08-13 08:10:00",248510,0.321,24.69,18.36,100,118.7732,0,864.8791,0,-2.786,3.106,252,22.24,21.98,17.07188,0.143,44.15,51.88,31.81,33.76
"2016-08-13 08:20:00",248511,0.459,10.95,18.08,100,196.7893,0,864.8876,0,-2.405,3.103,258,22.24,21.98,32.30205,0.164,44.2,51.88,31.82,33.76
"2016-08-13 08:30:00",248512,0.4,25.15,18.23,100,179.0794,0,864.9507,0,-3.709,3.114,218,22.23,21.99,28.05397,0.155,44.2,51.88,31.82,33.76
"2016-08-13 08:40:00",248513,0.669,12.61,18.46,100,291.9965,0,864.8959,0,-3.058,3.107,253,22.24,21.99,47.54358,0.163,44.2,51.88,31.82,33.76
"2016-08-13 08:50:00",248514,0.492,5.647,18.63,100,260.1769,0,864.8791,0,-3.193,3.106,250,22.24,21.98,41.53337,0.157,44.2,51.88,31.82,33.76
"2016-08-13 09:00:00",248515,0.381,8.15,19.32,93.2,414.2047,0,864.8791,0,-3.074,3.103,221,22.24,21.97,65.97212,0.16,44.2,51.88,31.82,33.76
"2016-08-13 09:10:00",248516,0.621,359.4,19.48,92,449.4829,0,864.8758,0,-3.966,3.11,212,22.24,21.97,66.73382,0.148,44.15,51.88,31.81,33.76
"2016-08-13 09:20:00",248517,0.223,58.29,20.05,89.8,549.5793,0,864.853,0,-3.838,3.103,208,22.2,21.96,82.2823,0.151,44.2,51.88,31.82,33.76
"2016-08-13 09:30:00",248518,0.397,26.8,20.38,86.3,359.4048,0,864.7147,0,-3.456,3.103,237,22.15,21.94,52.94746,0.147,44.15,51.88,31.81,33.76
"2016-08-13 09:40:00",248519,0.441,16.31,19.88,90.2,236.945,0,864.8427,0,-3.52,3.105,224,22.16,21.9,34.96609,0.147,44.15,51.82,31.81,33.75
"2016-08-13 09:50:00",248520,0.492,27.03,20.23,89.4,713.1971,0,864.8452,0,-3.764,3.1,201,22.21,21.89,108.4604,0.154,44.15,51.82,31.81,33.75
"2016-08-13 10:00:00",248521,0.262,40.88,21.18,81.8,776.6476,0,864.6107,0,-2.378,3.083,267,22.26,21.88,112.9207,0.141,44.2,51.82,31.82,33.75
"2016-08-13 10:10:00",248522,0.447,28.99,20.84,81.8,301.8969,0,864.5595,0,-4.548,3.111,199,22.23,21.87,39.74471,0.13,44.15,51.82,31.81,33.75
"2016-08-13 10:20:00",248523,0.357,359.3,20.59,83.6,480.3867,0,864.5234,0,-4.3,3.107,190,22.24,21.85,69.53808,0.14,44.15,51.82,31.81,33.75
"2016-08-13 10:30:00",248524,0.37,340.2,21.24,79.42,690.5037,0,864.363,0,-2.996,3.091,195,22.25,21.84,101.9841,0.144,44.15,51.82,31.81,33.75
"2016-08-13 10:40:00",248525,0.398,64.29,21.96,77.13,740.3475,0,864.3055,0,-2.884,3.089,198,22.34,21.83,108.7333,0.14,44.09,51.82,31.79,33.75
"2016-08-13 10:50:00",248526,0.5,44.34,21.76,77.38,523.0028,0,864.1657,0,-3.747,3.098,184,22.31,21.82,72.90319,0.125,44.09,51.82,31.79,33.75
"2016-08-13 11:00:00",248527,0.475,306.1,21.26,79.5,324.2248,0,864.1074,0,-3.797,3.101,181,22.43,21.85,40.55567,0.123,44.09,51.82,31.79,33.75
"2016-08-13 11:10:00",248528,0.337,289.7,21.29,79.28,705.6746,0,864.2152,0,-3.111,3.088,203,22.42,21.85,109.9194,0.149,44.09,51.82,31.79,33.75
"2016-08-13 11:20:00",248529,0.276,288,22.48,73.86,731.3865,0,864.0801,0,-3.494,3.091,185,22.5,21.84,110.1051,0.145,44.09,51.82,31.79,33.75
"2016-08-13 11:30:00",248530,0.373,4.005,22.35,73.68,800.921,0,864.0564,0,-2.884,3.084,199,22.53,21.84,122.1407,0.146,44.04,51.82,31.78,33.75
"2016-08-13 11:40:00",248531,0.332,80.9,22.75,73.23,786.7037,0,863.8622,0,-3.165,3.084,209,22.55,21.84,119.8971,0.147,44.09,51.82,31.79,33.75
"2016-08-13 11:50:00",248532,0.521,78.23,23.08,69.63,833.8971,0,863.8015,0,-4.282,3.097,193,22.63,21.82,125.8149,0.141,44.04,51.77,31.78,33.73
"2016-08-13 12:00:00",248533,0.249,320.6,22.35,71.79,553.9066,0,863.6662,0,-4.236,3.097,206,22.68,21.76,79.60255,0.131,44.04,51.77,31.78,33.73
"2016-08-13 12:10:00",248534,0.276,184.2,22.78,70.43,370.8446,0,863.5434,0,-3.46,3.09,207,22.74,21.76,46.74762,0.113,43.99,51.77,31.77,33.73
"2016-08-13 12:20:00",248535,0.322,39.86,22.24,72.44,257.7282,0,863.5414,0,-4.463,3.101,211,22.81,21.73,32.50666,0.125,43.99,51.77,31.77,33.73
"2016-08-13 12:30:00",248536,0.33,101.3,22.41,70.84,489.5954,0,863.5513,0,-3.301,3.088,195,22.89,21.71,75.91587,0.148,43.99,51.77,31.77,33.73
"2016-08-13 12:40:00",248537,0.248,295.5,23.03,64.91,480.7405,0,863.4725,0,-5.013,3.104,226,22.91,21.76,73.09267,0.14,43.99,51.77,31.77,33.73
"2016-08-13 12:50:00",248538,0.195,294.7,22.45,68.97,253.067,0,863.319,0,-4.926,3.105,210,22.99,21.73,32.89322,0.129,43.94,51.71,31.75,33.72
"2016-08-13 13:00:00",248539,0.263,283.7,22.67,68.98,557.8526,0,863.322,0,-4.644,3.1,224,23.02,21.74,85.65121,0.137,43.94,51.71,31.75,33.72
"2016-08-13 13:10:00",248540,0.453,327.5,23.19,66.67,711.8215,0,863.3136,0,-3.541,3.086,187,23.08,21.78,112.5683,0.147,43.94,51.77,31.75,33.73
"2016-08-13 13:20:00",248541,0.183,173.2,23.88,62.54,837.4059,0,863.2528,0,-3.62,3.082,202,23.14,21.8,135.8058,0.156,43.94,51.71,31.75,33.72
"2016-08-13 13:30:00",248542,0.545,210.4,24.31,61.94,719.741,0,863.051,0,-4.739,3.095,193,23.19,21.76,111.1776,0.145,43.94,51.71,31.75,33.72
"2016-08-13 13:40:00",248543,0.39,265.1,23.25,64.56,370.103,0,863.0316,0,-3.456,3.087,219,23.16,21.79,51.26491,0.122,43.89,51.66,31.74,33.7
"2016-08-13 13:50:00",248544,0.307,67.63,23.74,62.81,643.3009,0,862.823,0,-4.417,3.091,200,23.24,21.79,94.44673,0.136,43.84,51.66,31.72,33.7
"2016-08-13 14:00:00",248545,0.375,342.5,23.94,62.05,700.0543,0,862.7907,0,-5.185,3.097,200,23.32,21.78,104.0191,0.141,43.84,51.66,31.72,33.7
"2016-08-13 14:10:00",248546,0.622,24.35,24.25,58.34,634.4264,0,862.7861,0,-2.784,3.074,190,23.37,21.76,87.63314,0.134,43.84,51.66,31.72,33.7
"2016-08-13 14:20:00",248547,0.304,313.7,23.71,61.97,258.0899,0,862.7717,0,-2.963,3.08,218,23.41,21.78,28.48598,0.11,43.84,51.66,31.72,33.7
"2016-08-13 14:30:00",248548,0.088,263.1,23.46,65.89,237.9944,0,862.7722,0,-2.301,3.075,197,23.48,21.8,29.0582,0.122,43.84,51.66,31.72,33.7
"2016-08-13 14:40:00",248549,0.165,289.6,23.88,63.29,710.4695,0,862.5959,0,-2.424,3.071,190,23.52,21.81,85.6891,0.122,43.78,51.6,31.71,33.69
"2016-08-13 14:50:00",248550,0.328,226,24.06,61.15,239.425,0,862.5423,0,-4.635,3.094,195,23.57,21.82,26.42447,0.112,43.78,51.66,31.71,33.7
"2016-08-13 15:00:00",248551,0.154,12.75,23.47,63.88,303.1585,0,862.5311,0,-4.029,3.09,193,23.59,21.84,38.02804,0.126,43.78,51.6,31.71,33.69
"2016-08-13 15:10:00",248552,0.268,270.2,23.8,60.7,321.7959,0,862.5175,0,-2.909,3.077,194,23.65,21.82,44.91743,0.141,43.73,51.66,31.7,33.7
"2016-08-13 15:20:00",248553,0.243,212.7,23.96,61.53,235.4201,0,862.4192,0,-3.269,3.08,205,23.65,21.82,35.60274,0.151,43.78,51.66,31.71,33.7
"2016-08-13 15:30:00",248554,0.431,334.2,24.1,58.57,260.8608,0,862.3329,0,-2.69,3.074,198,23.76,21.85,38.98301,0.15,43.73,51.6,31.7,33.69
"2016-08-13 15:40:00",248555,0.3,21.72,24.39,57.62,214.5502,0,862.3027,0,-4.027,3.085,201,23.76,21.85,32.58626,0.152,43.73,51.55,31.7,33.68
"2016-08-13 15:50:00",248556,0.185,188.9,24.29,60.84,187.9383,0,862.3033,0,-2.586,3.073,193,23.83,21.84,27.06869,0.143,43.68,51.55,31.68,33.68
"2016-08-13 16:00:00",248557,0.049,162.5,24.16,62.09,201.0615,0,862.3168,0,-3.64,3.084,190,23.85,21.85,27.88344,0.138,43.73,51.55,31.7,33.68
"2016-08-13 16:10:00",248558,0.032,189.5,23.88,63.86,184.291,0,862.3145,0,-3.441,3.083,186,23.86,21.85,24.30233,0.131,43.68,51.55,31.68,33.68
"2016-08-13 16:20:00",248559,0.03,148.7,23.65,64.61,132.8357,0,862.2688,0,-4.038,3.091,180,23.92,21.85,16.5224,0.124,43.68,51.55,31.68,33.68
"2016-08-13 16:30:00",248560,0.221,168.7,23.24,64.36,142.6811,0,862.1226,0,-3.692,3.087,177,23.94,21.85,20.43699,0.143,43.63,51.55,31.67,33.68
"2016-08-13 16:40:00",248561,0.494,187.5,23.55,64.49,199.9335,0,862.1031,0,-2.825,3.078,191,23.94,21.85,31.48351,0.157,43.63,51.55,31.67,33.68
"2016-08-13 16:50:00",248562,0.222,232.8,23.87,65.8,240.2543,0,862.0853,0,-3.431,3.082,192,23.99,21.89,36.95182,0.154,43.63,51.55,31.67,33.68
"2016-08-13 17:00:00",248563,0.182,277.2,23.79,68.08,225.3821,0,862.204,0,-3.138,3.081,191,24.06,21.96,33.84818,0.15,43.58,51.49,31.66,33.66
"2016-08-13 17:10:00",248564,0.497,230.5,23.48,70.04,215.4188,0,862.3318,0,-3.205,3.083,189,24.07,21.98,32.68858,0.152,43.63,51.49,31.67,33.66
"2016-08-13 17:20:00",248565,0.244,201.5,23.4,71.89,192.1319,0,862.3317,0,-3.205,3.083,186,24.07,21.98,29.27799,0.152,43.58,51.49,31.66,33.66
"2016-08-13 17:30:00",248566,0.201,230.4,23.31,72.05,152.5657,0,862.3373,0,-2.902,3.081,187,24.07,21.98,22.74862,0.149,43.58,51.49,31.66,33.66
"2016-08-13 17:40:00",248567,0.182,243.2,22.91,73.13,128.9722,0,862.4161,0,-3.187,3.086,191,24.09,21.98,18.31864,0.142,43.58,51.49,31.66,33.66
"2016-08-13 17:50:00",248568,0.358,247.7,22.64,74.17,91.55202,0,862.425,0,-3.461,3.09,191,24.12,21.98,12.28569,0.132,43.53,51.49,31.64,33.66
"2016-08-13 18:00:00",248569,0.146,76.4,22.45,76.44,57.84591,0,862.5779,0,-3.621,3.092,196,24.14,22,6.927281,0.119,43.58,51.49,31.66,33.66
"2016-08-13 18:10:00",248570,0.047,223.8,22.18,77.14,23.83717,0,862.7672,0,-3.177,3.09,193,24.13,22.05,1.576449,0.057,43.53,51.49,31.64,33.66
"2016-08-13 18:20:00",248571,0.006,195.5,21.79,79.6,8.929605,0,862.8483,0,-4.083,3.101,191,24.12,22.12,0.01136862,0.001,43.53,51.49,31.64,33.66
"2016-08-13 18:30:00",248572,0,0,21.29,83.6,5.757865,0,862.9731,0,-3.684,3.099,193,24.08,22.15,0.03031633,0.005,43.53,51.55,31.64,33.68
"2016-08-13 18:40:00",248573,0.196,23.71,20.97,85.5,3.902771,0,863.1057,0,-3.391,3.098,193,24.1,22.15,0.1023176,0.017,43.53,51.49,31.64,33.66
"2016-08-13 18:50:00",248574,0.037,218.3,20.83,86.2,0.1336296,0,863.1087,0,-3.55,3.1,194,24.11,22.15,0,0,43.53,51.49,31.64,33.66
"2016-08-13 19:00:00",248575,0.009,213.8,20.58,86.9,0,0,863.2487,0,-3.878,3.105,192,24.12,22.15,0,0,43.53,51.49,31.64,33.66
"2016-08-13 19:10:00",248576,0,0,20.27,88.6,0,0,863.3621,0,-4.276,3.11,179,24.06,22.15,0,0,43.47,51.49,31.63,33.66
"2016-08-13 19:20:00",248577,0.237,193.4,19.8,94.4,0,0,863.3625,0,-4.197,3.112,194,24.01,22.15,0,0,43.53,51.49,31.64,33.66
"2016-08-13 19:30:00",248578,0.114,181.9,19.5,99.6,0,0,863.449,0,-3.79,3.109,200,24.05,22.18,0,0,43.47,51.49,31.63,33.66
"2016-08-13 19:40:00",248579,0.016,173.7,19.56,96.7,0,0,863.5458,0,-3.727,3.107,189,24.05,22.2,0.2046352,0,43.47,51.49,31.63,33.66
"2016-08-13 19:50:00",248580,0.103,184.8,19.45,94.9,0,0,863.529,0,-3.544,3.108,196,23.94,22.23,0.09094898,0,43.47,51.49,31.63,33.66
"2016-08-13 20:00:00",248581,0.164,190.8,19.03,100,0,0,863.6153,0,-3.607,3.11,196,23.97,22.24,0,0,43.47,51.49,31.63,33.66
"2016-08-13 20:10:00",248582,0.103,191.2,19.03,100,0,0,863.7249,0,-3.806,3.111,203,23.95,22.24,0.2197934,0,43.47,51.49,31.63,33.66
"2016-08-13 20:20:00",248583,0.023,65.23,19.16,100,0,0,863.8555,0,-3.91,3.112,198,23.89,22.24,0.371375,0,43.47,51.49,31.63,33.66
"2016-08-13 20:30:00",248584,0,0,19.14,100,0,0,863.8682,0,-3.91,3.112,194,23.87,22.25,0.2766365,0,43.47,51.49,31.63,33.66
"2016-08-13 20:40:00",248585,0.003,92.1,19.22,99.7,0,0,863.8702,0,-3.878,3.111,194,23.79,22.29,0.6404324,0,43.47,51.49,31.63,33.66
"2016-08-13 20:50:00",248586,0,0,19.3,99.7,0,0,863.8723,0,-4.212,3.114,189,23.78,22.33,0.602537,0,43.42,51.49,31.62,33.66
"2016-08-13 21:00:00",248587,0,0,19.17,100,0,0,863.8682,0,-4.371,3.116,178,23.73,22.31,0.3675855,0,43.47,51.49,31.63,33.66
"2016-08-13 21:10:00",248588,0,0,19.37,100,0,0,863.8682,0,-4.825,3.119,195,23.7,22.34,0.4736926,0,43.42,51.44,31.62,33.65
"2016-08-13 21:20:00",248589,0,0,19.21,99.9,0,0,863.8682,0,-4.665,3.12,195,23.72,22.34,0.1136862,0,43.42,51.44,31.62,33.65
"2016-08-13 21:30:00",248590,0.007,127.4,18.76,100,0,0,863.7418,0,-4.656,3.122,182,23.67,22.33,0,0,43.47,51.44,31.63,33.65
"2016-08-13 21:40:00",248591,0,0,18.83,100,0,0,863.7775,0,-4.745,3.121,189,23.63,22.33,0.3675855,0,43.42,51.44,31.62,33.65
"2016-08-13 21:50:00",248592,0.039,195.7,18.84,100,0,0,863.708,0,-4.648,3.121,192,23.61,22.32,0.3941123,0,43.42,51.44,31.62,33.65
"2016-08-13 22:00:00",248593,0.14,165.6,18.74,100,0,0,863.6385,0,-4.656,3.122,190,23.54,22.32,0.4054809,0,43.42,51.44,31.62,33.65
"2016-08-13 22:10:00",248594,0.063,139,18.48,100,0,0,863.5059,0,-4.631,3.122,195,23.54,22.32,0.02273725,0,43.47,51.44,31.63,33.65
"2016-08-13 22:20:00",248595,0,0,18.65,100,0,0,863.4406,0,-4.751,3.122,182,23.47,22.32,0.2538992,0,43.42,51.44,31.62,33.65
"2016-08-13 22:30:00",248596,0.043,131.5,18.53,100,0,0,863.3626,0,-4.067,3.117,189,23.45,22.32,0.1174758,0,43.42,51.44,31.62,33.65
"2016-08-13 22:40:00",248597,0.025,129.4,18.7,100,0,0,863.3626,0,-4.545,3.12,190,23.41,22.32,0.4812717,0,43.42,51.44,31.62,33.65
"2016-08-13 22:50:00",248598,0.001,129.6,18.9,100,0,0,863.3647,0,-4.251,3.116,190,23.37,22.34,0.82612,0,43.42,51.44,31.62,33.65
"2016-08-13 23:00:00",248599,0.104,133.4,18.6,100,0,0,863.3774,0,-3.836,3.115,197,23.37,22.35,0.4282182,0,43.42,51.44,31.62,33.65
"2016-08-13 23:10:00",248600,0.148,191.2,18.39,100,0,0,863.3626,0,-3.701,3.113,187,23.36,22.36,0.140213,0,43.42,51.38,31.62,33.64
"2016-08-13 23:20:00",248601,0.024,69.17,18.72,100,0,0,863.3626,0,-3.662,3.111,182,23.28,22.36,0.7275919,0,43.42,51.38,31.62,33.64
"2016-08-13 23:30:00",248602,0.144,119.1,18.82,100,0,0,863.3626,0,-3.67,3.112,181,23.28,22.38,0.6707488,0,43.42,51.44,31.62,33.65
"2016-08-13 23:40:00",248603,0.082,192.4,18.66,100,0,0,863.3563,0,-3.408,3.109,195,23.22,22.38,0.2273725,0,43.42,51.44,31.62,33.65
"2016-08-13 23:50:00",248604,0.199,99.4,18.81,100,0,0,863.2636,0,-3.456,3.109,194,23.19,22.38,0.5419043,0,43.42,51.44,31.62,33.65
